Weather History for KWST - March, 2014

Change the Weather History Date:

Thursday, March 6, 2014

  Actual Average (KGON) Record (KGON)
Temperature  
Mean Temperature 21 °F -  
Max Temperature 30 °F 44 °F 58 °F (1984)
Min Temperature 12 °F 26 °F 7 °F (2015)
Degree Days  
Heating Degree Days 44    
Moisture  
Dew Point 4 °F    
Average Humidity 50    
Maximum Humidity 81    
Minimum Humidity 24    
Precipitation  
Precipitation 0.00 in - - ()
Sea Level Pressure  
Sea Level Pressure 30.56 in    
Wind  
Wind Speed 9 mph (NNE)    
Max Wind Speed 12 mph    
Max Gust Speed 21 mph    
Visibility 10 miles    
Events      
Averages and records for this station are not official NWS values.
T = Trace of Precipitation, MM = Missing Value Source: NWS Daily Summary

Daily Weather History Graph

Daily Weather History Graph

Search for Another Location

Airport or City:

Trip Planner

Search our weather history database for the weather conditions in past years. The results will help you decide how hot, cold, wet, or windy it might be!

Date:

Astronomy

Mar. 06, 2014 Rise Set
Actual Time 6:13 AM EST 5:43 PM EST
Civil Twilight 5:46 AM EST 6:11 PM EST
Nautical Twilight 5:14 AM EST 6:43 PM EST
Astronomical Twilight 4:42 AM EST 7:15 PM EST
Moon 9:15 AM EST (3/6) 11:50 PM EST (3/6)
Length of Visible Light 12h 25m
Length of Day
11h 29m
Waxing Crescent, 32% of the Moon is Illuminated
Mar 6
Waxing Crescent
Mar 8
First Quarter
Mar 16
Full
Mar 23
Last Quarter
Mar 30
New

Hourly Weather History & Observations

Time (EST) Temp. Windchill Dew Point Humidity Pressure Visibility Wind Dir Wind Speed Gust Speed Precip Events Conditions
12:53 AM 21.0 °F 9.3 °F 12.0 °F 68% 30.47 in 10.0 mi North 11.5 mph 20.7 mph N/A   Clear
1:53 AM 19.0 °F 8.2 °F 6.1 °F 57% 30.49 in 10.0 mi North 9.2 mph - N/A   Clear
2:53 AM 17.1 °F 4.3 °F 3.9 °F 56% 30.50 in 10.0 mi North 11.5 mph 19.6 mph N/A   Clear
3:53 AM 15.1 °F 1.8 °F 1.9 °F 56% 30.51 in 10.0 mi North 11.5 mph - N/A   Clear
4:53 AM 14.0 °F 1.2 °F 1.0 °F 56% 30.54 in 10.0 mi North 10.4 mph - N/A   Clear
5:53 AM 12.9 °F -0.2 °F -0.9 °F 54% 30.56 in 10.0 mi North 10.4 mph - N/A   Clear
6:53 AM 14.0 °F 5.1 °F -2.0 °F 49% 30.59 in 10.0 mi North 5.8 mph - N/A   Clear
7:53 AM 17.1 °F 5.8 °F -2.9 °F 41% 30.61 in 10.0 mi North 9.2 mph - N/A   Clear
8:53 AM 19.9 °F 9.3 °F -2.9 °F 37% 30.63 in 10.0 mi North 9.2 mph - N/A   Clear
9:53 AM 23.0 °F 11.7 °F -0.9 °F 35% 30.61 in 10.0 mi North 11.5 mph - N/A   Clear
10:53 AM 24.1 °F 15.2 °F -2.0 °F 32% 30.62 in 10.0 mi NE 8.1 mph - N/A   Clear
11:53 AM 27.0 °F 18.0 °F -2.9 °F 27% 30.61 in 10.0 mi NNW 9.2 mph - N/A   Clear
12:53 PM 28.0 °F 21.7 °F -5.1 °F 24% 30.59 in 10.0 mi NE 5.8 mph - N/A   Clear
1:53 PM 28.0 °F 18.6 °F 1.0 °F 31% 30.58 in 10.0 mi South 10.4 mph - N/A   Clear
2:53 PM 28.9 °F 21.9 °F 1.0 °F 30% 30.55 in 10.0 mi Variable 6.9 mph - N/A   Clear
3:53 PM 30.9 °F 26.2 °F -0.0 °F 27% 30.55 in 10.0 mi Variable 4.6 mph - N/A   Clear
4:53 PM 28.9 °F 21.9 °F 3.0 °F 33% 30.56 in 10.0 mi East 6.9 mph - N/A   Clear
5:53 PM 26.1 °F 19.4 °F 10.9 °F 53% 30.57 in 10.0 mi ESE 5.8 mph - N/A   Clear
6:53 PM 24.1 °F 19.7 °F 12.9 °F 62% 30.58 in 10.0 mi East 3.5 mph - N/A   Clear
7:53 PM 21.9 °F - 12.0 °F 66% 30.58 in 10.0 mi Calm Calm - N/A   Clear
8:53 PM 19.9 °F 14.9 °F 12.9 °F 74% 30.58 in 10.0 mi North 3.5 mph - N/A   Clear
9:53 PM 19.9 °F - 12.9 °F 74% 30.56 in 10.0 mi Calm Calm - N/A   Clear
10:53 PM 18.0 °F - 12.9 °F 81% 30.54 in 10.0 mi Calm Calm - N/A   Clear
11:53 PM 18.0 °F 9.8 °F 12.9 °F 81% 30.52 in 8.0 mi North 5.8 mph - N/A   Clear